Time,TemperatureF,DewpointF,PressureIn,WindDirection,WindDirectionDegrees,WindSpeedMPH,WindSpeedGustMPH,Humidity,HourlyPrecipIn,Conditions,Clouds,dailyrainin,SoftwareType,DateUTC
2013-08-05 00:01:00,80.4,76.9,30.02,SSW,204,0.0,0.0,89,0.00,,---,0.00,VWS V14.01,2013-08-05 04:01:00,
2013-08-05 00:02:00,80.4,76.9,30.02,West,277,1.0,3.0,89,0.00,,---,0.00,VWS V14.01,2013-08-05 04:02:00,
2013-08-05 00:04:00,80.5,77.0,30.02,WSW,253,2.0,3.0,89,0.00,,---,0.00,VWS V14.01,2013-08-05 04:04:00,
2013-08-05 00:09:00,80.5,77.0,30.03,WNW,288,0.0,3.0,89,0.00,,---,0.00,VWS V14.01,2013-08-05 04:09:00,
2013-08-05 00:14:00,80.6,77.1,30.03,SW,221,0.0,3.0,89,0.00,,---,0.00,VWS V14.01,2013-08-05 04:14:00,
2013-08-05 00:19:00,80.5,76.6,30.03,SW,231,0.0,3.0,88,0.00,,---,0.00,VWS V14.01,2013-08-05 04:19:00,
2013-08-05 00:24:00,80.4,76.9,30.03,SSW,208,0.0,3.0,89,0.00,,---,0.00,VWS V14.01,2013-08-05 04:24:00,
2013-08-05 00:30:00,80.3,76.8,30.03,SSW,211,0.0,3.0,89,0.00,,---,0.00,VWS V14.01,2013-08-05 04:30:00,
2013-08-05 00:35:00,80.1,76.6,30.02,South,170,0.0,0.0,89,0.00,,---,0.00,VWS V14.01,2013-08-05 04:35:00,
2013-08-05 00:40:00,80.0,76.8,30.02,SW,228,0.0,2.0,90,0.00,,---,0.00,VWS V14.01,2013-08-05 04:40:00,
2013-08-05 00:45:00,79.9,76.7,30.03,SW,229,0.0,2.0,90,0.00,,---,0.00,VWS V14.01,2013-08-05 04:45:00,
2013-08-05 00:50:00,79.7,76.5,30.02,SSW,204,1.0,2.0,90,0.00,,---,0.00,VWS V14.01,2013-08-05 04:50:00,
2013-08-05 00:55:00,79.6,76.8,30.02,WSW,245,0.0,2.0,91,0.00,,---,0.00,VWS V14.01,2013-08-05 04:55:00,
2013-08-05 01:00:00,79.5,76.7,30.02,WNW,293,0.0,0.0,91,0.00,,---,0.00,VWS V14.01,2013-08-05 05:00:00,
2013-08-05 01:05:00,79.5,76.7,30.02,West,277,0.0,1.0,91,0.00,,---,0.00,VWS V14.01,2013-08-05 05:05:00,
2013-08-05 01:10:00,79.5,76.7,30.02,SE,144,0.0,2.0,91,0.00,,---,0.00,VWS V14.01,2013-08-05 05:10:00,
2013-08-05 01:15:00,79.5,76.7,30.01,WSW,250,1.0,2.0,91,0.00,,---,0.00,VWS V14.01,2013-08-05 05:15:00,
2013-08-05 01:20:00,79.5,76.7,30.01,SW,228,0.0,2.0,91,0.00,,---,0.00,VWS V14.01,2013-08-05 05:20:00,
2013-08-05 01:25:00,79.5,76.7,30.01,WSW,242,1.0,2.0,91,0.00,,---,0.00,VWS V14.01,2013-08-05 05:25:00,
2013-08-05 01:30:00,79.5,76.7,30.01,West,276,0.0,2.0,91,0.00,,---,0.00,VWS V14.01,2013-08-05 05:30:00,
2013-08-05 01:35:00,79.4,76.9,30.01,South,183,0.0,2.0,92,0.00,,---,0.00,VWS V14.01,2013-08-05 05:35:00,
2013-08-05 01:40:00,79.4,76.9,30.01,SSW,208,0.0,2.0,92,0.00,,---,0.00,VWS V14.01,2013-08-05 05:40:00,
2013-08-05 01:45:00,79.3,76.8,30.01,WSW,238,0.0,2.0,92,0.00,,---,0.00,VWS V14.01,2013-08-05 05:45:00,
2013-08-05 01:50:00,79.3,76.8,30.01,West,269,0.0,2.0,92,0.00,,---,0.00,VWS V14.01,2013-08-05 05:50:00,
2013-08-05 01:55:00,79.1,76.6,30.00,West,271,0.0,2.0,92,0.00,,---,0.00,VWS V14.01,2013-08-05 05:55:00,
2013-08-05 02:00:00,79.1,76.6,30.00,West,270,0.0,0.0,92,0.00,,---,0.00,VWS V14.01,2013-08-05 06:00:00,
2013-08-05 02:05:00,78.9,76.4,30.00,West,269,0.0,0.0,92,0.00,,---,0.00,VWS V14.01,2013-08-05 06:05:00,
2013-08-05 02:10:00,78.8,76.6,30.00,WSW,238,0.0,3.0,93,0.00,,---,0.00,VWS V14.01,2013-08-05 06:10:00,
2013-08-05 02:16:00,78.6,76.4,30.00,SSW,211,0.0,3.0,93,0.00,,---,0.00,VWS V14.01,2013-08-05 06:16:00,
2013-08-05 02:21:00,78.5,76.3,30.00,SW,228,0.0,3.0,93,0.00,,---,0.00,VWS V14.01,2013-08-05 06:21:00,
2013-08-05 02:26:00,78.3,76.1,30.00,SW,228,0.0,3.0,93,0.00,,---,0.00,VWS V14.01,2013-08-05 06:26:00,
2013-08-05 02:31:00,78.3,76.4,29.99,SW,231,0.0,0.0,94,0.00,,---,0.00,VWS V14.01,2013-08-05 06:31:00,
2013-08-05 02:36:00,78.2,76.3,29.99,WSW,239,0.0,1.0,94,0.00,,---,0.00,VWS V14.01,2013-08-05 06:36:00,
2013-08-05 02:41:00,78.1,76.2,29.99,West,266,0.0,1.0,94,0.00,,---,0.00,VWS V14.01,2013-08-05 06:41:00,
2013-08-05 02:46:00,77.9,76.0,29.99,SSW,197,0.0,1.0,94,0.00,,---,0.00,VWS V14.01,2013-08-05 06:46:00,
2013-08-05 02:52:00,77.9,76.0,29.99,SSW,204,0.0,1.0,94,0.00,,---,0.00,VWS V14.01,2013-08-05 06:52:00,
2013-08-05 02:57:00,77.8,75.9,29.99,SSW,210,0.0,1.0,94,0.00,,---,0.00,VWS V14.01,2013-08-05 06:57:00,
2013-08-05 03:01:00,77.7,76.2,29.99,SW,229,0.0,0.0,95,0.00,,---,0.00,VWS V14.01,2013-08-05 07:01:00,
2013-08-05 03:07:00,77.6,76.1,29.98,SW,229,0.0,0.0,95,0.00,,---,0.00,VWS V14.01,2013-08-05 07:07:00,
2013-08-05 03:12:00,77.5,76.0,29.98,SW,229,0.0,0.0,95,0.00,,---,0.00,VWS V14.01,2013-08-05 07:12:00,
2013-08-05 03:17:00,77.5,76.0,29.98,SW,231,0.0,0.0,95,0.00,,---,0.00,VWS V14.01,2013-08-05 07:17:00,
2013-08-05 03:22:00,77.5,76.0,29.97,SW,231,0.0,0.0,95,0.00,,---,0.00,VWS V14.01,2013-08-05 07:22:00,
2013-08-05 03:27:00,77.4,75.9,29.97,SW,232,0.0,1.0,95,0.00,,---,0.00,VWS V14.01,2013-08-05 07:27:00,
2013-08-05 03:32:00,77.3,75.8,29.98,SW,231,0.0,0.0,95,0.00,,---,0.00,VWS V14.01,2013-08-05 07:32:00,
2013-08-05 03:37:00,77.3,75.8,29.98,SW,232,0.0,0.0,95,0.00,,---,0.00,VWS V14.01,2013-08-05 07:37:00,
2013-08-05 03:42:00,77.3,75.8,29.97,SW,233,0.0,0.0,95,0.00,,---,0.00,VWS V14.01,2013-08-05 07:42:00,
2013-08-05 03:47:00,77.2,75.7,29.97,SW,233,0.0,0.0,95,0.00,,---,0.00,VWS V14.01,2013-08-05 07:47:00,
2013-08-05 03:52:00,77.1,75.9,29.97,SW,232,0.0,0.0,96,0.00,,---,0.00,VWS V14.01,2013-08-05 07:52:00,
2013-08-05 03:57:00,77.0,75.5,29.97,SW,232,0.0,0.0,95,0.00,,---,0.00,VWS V14.01,2013-08-05 07:57:00,
2013-08-05 04:03:00,77.0,75.8,29.98,SW,233,1.0,1.0,96,0.00,,---,0.00,VWS V14.01,2013-08-05 08:03:00,
2013-08-05 04:07:00,77.1,75.9,29.98,SW,233,0.0,1.0,96,0.00,,---,0.00,VWS V14.01,2013-08-05 08:07:00,
2013-08-05 04:13:00,77.0,75.8,29.98,SW,233,0.0,1.0,96,0.00,,---,0.00,VWS V14.01,2013-08-05 08:13:00,
2013-08-05 04:17:00,77.1,75.9,29.98,WSW,239,0.0,1.0,96,0.00,,---,0.00,VWS V14.01,2013-08-05 08:17:00,
2013-08-05 04:23:00,77.1,75.9,29.98,WSW,239,0.0,1.0,96,0.00,,---,0.00,VWS V14.01,2013-08-05 08:23:00,
2013-08-05 04:28:00,77.0,75.8,29.98,WSW,239,0.0,1.0,96,0.00,,---,0.00,VWS V14.01,2013-08-05 08:28:00,
2013-08-05 04:33:00,76.9,75.7,29.98,WSW,239,0.0,1.0,96,0.00,,---,0.00,VWS V14.01,2013-08-05 08:33:00,
2013-08-05 04:38:00,76.8,75.6,29.97,WSW,239,0.0,1.0,96,0.00,,---,0.00,VWS V14.01,2013-08-05 08:38:00,
2013-08-05 04:43:00,76.8,75.6,29.97,SW,236,0.0,1.0,96,0.00,,---,0.00,VWS V14.01,2013-08-05 08:43:00,
2013-08-05 04:48:00,76.8,75.6,29.97,SW,236,0.0,1.0,96,0.00,,---,0.00,VWS V14.01,2013-08-05 08:48:00,
2013-08-05 04:53:00,76.9,75.7,29.97,SW,214,0.0,1.0,96,0.00,,---,0.00,VWS V14.01,2013-08-05 08:53:00,
2013-08-05 04:58:00,76.8,75.6,29.98,SW,214,0.0,1.0,96,0.00,,---,0.00,VWS V14.01,2013-08-05 08:58:00,
2013-08-05 05:05:00,76.7,75.5,29.97,SW,214,0.0,0.0,96,0.00,,---,0.00,VWS V14.01,2013-08-05 09:05:00,
2013-08-05 05:09:00,76.6,75.4,29.98,SW,214,0.0,0.0,96,0.00,,---,0.00,VWS V14.01,2013-08-05 09:09:00,
2013-08-05 05:15:00,76.7,75.8,29.98,SW,214,0.0,0.0,97,0.00,,---,0.00,VWS V14.01,2013-08-05 09:15:00,
2013-08-05 05:20:00,76.6,75.4,29.98,SW,214,0.0,0.0,96,0.00,,---,0.00,VWS V14.01,2013-08-05 09:20:00,
2013-08-05 05:25:00,76.6,75.7,29.98,SSW,213,0.0,1.0,97,0.00,,---,0.00,VWS V14.01,2013-08-05 09:25:00,
2013-08-05 05:30:00,76.6,75.7,29.98,SSW,213,0.0,0.0,97,0.00,,---,0.00,VWS V14.01,2013-08-05 09:30:00,
2013-08-05 05:36:00,76.6,75.7,29.98,SSW,213,0.0,0.0,97,0.00,,---,0.00,VWS V14.01,2013-08-05 09:36:00,
2013-08-05 05:41:00,76.7,75.8,29.98,SSW,212,0.0,1.0,97,0.00,,---,0.00,VWS V14.01,2013-08-05 09:41:00,
2013-08-05 05:46:00,76.7,75.8,29.98,SSW,212,0.0,1.0,97,0.00,,---,0.00,VWS V14.01,2013-08-05 09:46:00,
2013-08-05 05:51:00,76.6,75.7,29.98,SSW,213,0.0,1.0,97,0.00,,---,0.00,VWS V14.01,2013-08-05 09:51:00,
2013-08-05 05:57:00,76.7,75.8,29.98,West,270,0.0,1.0,97,0.00,,---,0.00,VWS V14.01,2013-08-05 09:57:00,
2013-08-05 06:02:00,76.8,75.9,29.98,West,264,0.0,0.0,97,0.00,,---,0.00,VWS V14.01,2013-08-05 10:02:00,
2013-08-05 06:07:00,76.7,75.8,29.98,West,269,0.0,1.0,97,0.00,,---,0.00,VWS V14.01,2013-08-05 10:07:00,
2013-08-05 06:12:00,76.6,75.7,29.99,West,269,0.0,1.0,97,0.00,,---,0.00,VWS V14.01,2013-08-05 10:12:00,
2013-08-05 06:18:00,76.6,75.7,29.99,West,267,0.0,1.0,97,0.00,,---,0.00,VWS V14.01,2013-08-05 10:18:00,
2013-08-05 06:23:00,76.5,75.6,29.99,West,267,0.0,1.0,97,0.00,,---,0.00,VWS V14.01,2013-08-05 10:23:00,
2013-08-05 06:28:00,76.5,75.6,29.99,West,267,0.0,1.0,97,0.00,,---,0.00,VWS V14.01,2013-08-05 10:28:00,
2013-08-05 06:33:00,76.4,75.5,29.99,West,267,0.0,0.0,97,0.00,,---,0.00,VWS V14.01,2013-08-05 10:33:00,
2013-08-05 06:38:00,76.4,75.5,29.99,West,267,0.0,0.0,97,0.00,,---,0.00,VWS V14.01,2013-08-05 10:38:00,
2013-08-05 06:43:00,76.3,75.4,30.00,West,267,0.0,0.0,97,0.00,,---,0.00,VWS V14.01,2013-08-05 10:43:00,
2013-08-05 06:49:00,76.2,75.3,30.00,West,267,0.0,0.0,97,0.00,,---,0.00,VWS V14.01,2013-08-05 10:49:00,
2013-08-05 06:54:00,76.2,75.3,30.00,West,267,0.0,0.0,97,0.00,,---,0.00,VWS V14.01,2013-08-05 10:54:00,
2013-08-05 06:59:00,76.2,75.3,30.00,West,267,0.0,0.0,97,0.00,,---,0.00,VWS V14.01,2013-08-05 10:59:00,
2013-08-05 07:04:00,76.4,75.5,30.00,West,271,0.0,1.0,97,0.00,,---,0.00,VWS V14.01,2013-08-05 11:04:00,
2013-08-05 07:09:00,76.4,75.5,30.00,West,271,0.0,1.0,97,0.00,,---,0.00,VWS V14.01,2013-08-05 11:09:00,
2013-08-05 07:14:00,76.8,75.9,30.00,West,271,0.0,1.0,97,0.00,,---,0.00,VWS V14.01,2013-08-05 11:14:00,
2013-08-05 07:20:00,77.0,76.1,30.00,West,260,0.0,1.0,97,0.00,,---,0.00,VWS V14.01,2013-08-05 11:20:00,
2013-08-05 07:25:00,77.2,76.3,30.00,West,260,0.0,1.0,97,0.00,,---,0.00,VWS V14.01,2013-08-05 11:25:00,
2013-08-05 07:31:00,77.7,76.8,30.00,West,260,0.0,0.0,97,0.00,,---,0.00,VWS V14.01,2013-08-05 11:31:00,
2013-08-05 07:36:00,77.9,77.0,30.01,West,261,0.0,0.0,97,0.00,,---,0.00,VWS V14.01,2013-08-05 11:36:00,
2013-08-05 07:41:00,78.3,77.4,30.00,SSW,210,0.0,1.0,97,0.00,,---,0.00,VWS V14.01,2013-08-05 11:41:00,
2013-08-05 07:47:00,78.6,77.4,30.01,SW,219,0.0,2.0,96,0.00,,---,0.00,VWS V14.01,2013-08-05 11:47:00,
2013-08-05 07:52:00,78.8,77.6,30.01,SW,215,0.0,2.0,96,0.00,,---,0.00,VWS V14.01,2013-08-05 11:52:00,
2013-08-05 07:57:00,79.1,77.9,30.01,WSW,252,0.0,2.0,96,0.00,,---,0.00,VWS V14.01,2013-08-05 11:57:00,
2013-08-05 08:02:00,79.4,78.2,30.01,SSW,212,0.0,1.0,96,0.00,,---,0.00,VWS V14.01,2013-08-05 12:02:00,
2013-08-05 08:08:00,79.7,78.5,30.01,SW,231,2.0,2.0,96,0.00,,---,0.00,VWS V14.01,2013-08-05 12:08:00,
2013-08-05 08:13:00,79.9,78.3,30.01,WNW,293,0.0,3.0,95,0.00,,---,0.00,VWS V14.01,2013-08-05 12:13:00,
2013-08-05 08:18:00,80.4,78.8,30.01,WSW,255,1.0,3.0,95,0.00,,---,0.00,VWS V14.01,2013-08-05 12:18:00,
2013-08-05 08:24:00,81.0,79.1,30.01,SW,235,1.0,3.0,94,0.00,,---,0.00,VWS V14.01,2013-08-05 12:24:00,
2013-08-05 08:29:00,81.4,79.2,30.01,West,259,1.0,3.0,93,0.00,,---,0.00,VWS V14.01,2013-08-05 12:29:00,
2013-08-05 08:34:00,81.7,79.2,30.01,West,276,0.0,2.0,92,0.00,,---,0.00,VWS V14.01,2013-08-05 12:34:00,
2013-08-05 08:39:00,82.4,79.2,30.01,WNW,288,0.0,2.0,90,0.00,,---,0.00,VWS V14.01,2013-08-05 12:39:00,
2013-08-05 08:44:00,83.0,79.4,30.01,West,264,1.0,3.0,89,0.00,,---,0.00,VWS V14.01,2013-08-05 12:44:00,
2013-08-05 08:49:00,83.0,79.1,30.01,West,278,1.0,4.0,88,0.00,,---,0.00,VWS V14.01,2013-08-05 12:49:00,
2013-08-05 08:54:00,83.3,79.4,30.01,WSW,248,0.0,4.0,88,0.00,,---,0.00,VWS V14.01,2013-08-05 12:54:00,
2013-08-05 08:59:00,83.8,79.5,30.02,South,188,1.0,4.0,87,0.00,,---,0.00,VWS V14.01,2013-08-05 12:59:00,
2013-08-05 09:04:00,84.5,79.5,30.02,West,275,1.0,2.0,85,0.00,,---,0.00,VWS V14.01,2013-08-05 13:04:00,
2013-08-05 09:09:00,85.1,79.4,30.01,SW,222,1.0,5.0,83,0.00,,---,0.00,VWS V14.01,2013-08-05 13:09:00,
2013-08-05 09:15:00,85.4,80.0,30.01,South,187,0.0,5.0,84,0.00,,---,0.00,VWS V14.01,2013-08-05 13:15:00,
2013-08-05 09:20:00,86.0,79.9,30.01,WNW,283,1.0,5.0,82,0.00,,---,0.00,VWS V14.01,2013-08-05 13:20:00,
2013-08-05 09:25:00,86.1,79.6,30.01,North,350,1.0,5.0,81,0.00,,---,0.00,VWS V14.01,2013-08-05 13:25:00,
2013-08-05 09:30:00,86.2,79.7,30.01,NW,314,1.0,1.0,81,0.00,,---,0.00,VWS V14.01,2013-08-05 13:30:00,
2013-08-05 09:36:00,86.1,80.0,30.02,NNW,345,1.0,2.0,82,0.00,,---,0.00,VWS V14.01,2013-08-05 13:36:00,
2013-08-05 09:41:00,86.2,80.1,30.01,SW,236,1.0,2.0,82,0.00,,---,0.00,VWS V14.01,2013-08-05 13:41:00,
2013-08-05 09:46:00,86.4,79.9,30.02,ESE,117,0.0,3.0,81,0.00,,---,0.00,VWS V14.01,2013-08-05 13:46:00,
2013-08-05 09:51:00,86.8,79.9,30.02,North,9,2.0,3.0,80,0.00,,---,0.00,VWS V14.01,2013-08-05 13:51:00,
2013-08-05 09:57:00,86.9,80.0,30.02,NNW,335,0.0,3.0,80,0.00,,---,0.00,VWS V14.01,2013-08-05 13:57:00,
2013-08-05 10:02:00,87.2,79.5,30.02,NNE,26,1.0,4.0,78,0.00,,---,0.00,VWS V14.01,2013-08-05 14:02:00,
2013-08-05 10:07:00,87.3,80.0,30.02,WNW,297,0.0,4.0,79,0.00,,---,0.00,VWS V14.01,2013-08-05 14:07:00,
2013-08-05 10:12:00,87.5,79.4,30.02,WNW,297,1.0,4.0,77,0.00,,---,0.00,VWS V14.01,2013-08-05 14:12:00,
2013-08-05 10:17:00,87.4,79.7,30.01,WSW,249,0.0,4.0,78,0.00,,---,0.00,VWS V14.01,2013-08-05 14:17:00,
2013-08-05 10:23:00,87.5,79.8,30.01,NW,304,2.0,5.0,78,0.00,,---,0.00,VWS V14.01,2013-08-05 14:23:00,
2013-08-05 10:27:00,87.7,80.0,30.01,WSW,248,1.0,5.0,78,0.00,,---,0.00,VWS V14.01,2013-08-05 14:27:00,
2013-08-05 10:33:00,88.0,79.9,30.01,NW,311,0.0,3.0,77,0.00,,---,0.00,VWS V14.01,2013-08-05 14:33:00,
2013-08-05 10:38:00,88.1,80.0,30.01,SW,229,3.0,4.0,77,0.00,,---,0.00,VWS V14.01,2013-08-05 14:38:00,
2013-08-05 10:43:00,88.0,79.1,30.01,NNW,332,2.0,5.0,75,0.00,,---,0.00,VWS V14.01,2013-08-05 14:43:00,
2013-08-05 10:48:00,88.3,79.4,30.01,West,277,1.0,5.0,75,0.00,,---,0.00,VWS V14.01,2013-08-05 14:48:00,
2013-08-05 10:54:00,89.2,79.0,30.01,WNW,300,5.0,6.0,72,0.00,,---,0.00,VWS V14.01,2013-08-05 14:54:00,
2013-08-05 10:59:00,88.7,78.5,30.01,NNW,342,2.0,6.0,72,0.00,,---,0.00,VWS V14.01,2013-08-05 14:59:00,
2013-08-05 11:04:00,88.5,79.6,30.01,SW,219,0.0,4.0,75,0.00,,---,0.00,VWS V14.01,2013-08-05 15:04:00,
2013-08-05 11:09:00,88.8,78.6,30.01,North,357,1.0,4.0,72,0.00,,---,0.00,VWS V14.01,2013-08-05 15:09:00,
2013-08-05 11:15:00,89.5,78.9,30.01,NNW,340,1.0,4.0,71,0.00,,---,0.00,VWS V14.01,2013-08-05 15:15:00,
2013-08-05 11:20:00,90.1,78.1,30.01,NE,54,0.0,4.0,68,0.00,,---,0.00,VWS V14.01,2013-08-05 15:20:00,
2013-08-05 11:25:00,90.4,78.8,30.01,North,349,1.0,4.0,69,0.00,,---,0.00,VWS V14.01,2013-08-05 15:25:00,
2013-08-05 11:30:00,90.6,77.2,30.00,NW,311,1.0,2.0,65,0.00,,---,0.00,VWS V14.01,2013-08-05 15:30:00,
2013-08-05 11:35:00,90.5,78.1,30.00,NW,321,2.0,4.0,67,0.00,,---,0.00,VWS V14.01,2013-08-05 15:35:00,
2013-08-05 11:40:00,90.0,77.6,30.00,NNW,330,2.0,6.0,67,0.00,,---,0.00,VWS V14.01,2013-08-05 15:40:00,
2013-08-05 11:46:00,90.2,78.7,30.00,NW,314,1.0,6.0,69,0.00,,---,0.00,VWS V14.01,2013-08-05 15:46:00,
2013-08-05 11:52:00,90.8,77.9,30.00,West,264,1.0,6.0,66,0.00,,---,0.00,VWS V14.01,2013-08-05 15:52:00,
2013-08-05 11:56:00,91.1,78.2,30.00,NE,34,1.0,6.0,66,0.00,,---,0.00,VWS V14.01,2013-08-05 15:56:00,
2013-08-05 12:02:00,91.0,77.1,30.00,NNW,328,2.0,4.0,64,0.00,,---,0.00,VWS V14.01,2013-08-05 16:02:00,
2013-08-05 12:07:00,90.9,78.9,30.00,NE,39,1.0,4.0,68,0.00,,---,0.00,VWS V14.01,2013-08-05 16:07:00,
2013-08-05 12:12:00,90.7,77.3,30.00,NE,39,2.0,7.0,65,0.00,,---,0.00,VWS V14.01,2013-08-05 16:12:00,
2013-08-05 12:17:00,90.8,77.9,30.00,NW,325,1.0,7.0,66,0.00,,---,0.00,VWS V14.01,2013-08-05 16:17:00,
2013-08-05 12:23:00,91.5,78.1,30.00,SW,221,1.0,7.0,65,0.00,,---,0.00,VWS V14.01,2013-08-05 16:23:00,
2013-08-05 12:28:00,91.8,77.4,30.00,NW,307,1.0,7.0,63,0.00,,---,0.00,VWS V14.01,2013-08-05 16:28:00,
2013-08-05 12:33:00,91.8,76.9,30.00,WNW,302,2.0,2.0,62,0.00,,---,0.00,VWS V14.01,2013-08-05 16:33:00,
2013-08-05 12:38:00,92.2,77.3,30.00,North,359,3.0,3.0,62,0.00,,---,0.00,VWS V14.01,2013-08-05 16:38:00,
2013-08-05 12:43:00,92.1,78.2,30.00,West,269,1.0,4.0,64,0.00,,---,0.00,VWS V14.01,2013-08-05 16:43:00,
2013-08-05 12:49:00,92.7,77.8,29.99,South,191,0.0,4.0,62,0.00,,---,0.00,VWS V14.01,2013-08-05 16:49:00,
2013-08-05 12:54:00,93.1,78.2,29.99,SSW,203,2.0,5.0,62,0.00,,---,0.00,VWS V14.01,2013-08-05 16:54:00,
2013-08-05 12:59:00,92.8,77.9,29.99,West,278,0.0,5.0,62,0.00,,---,0.00,VWS V14.01,2013-08-05 16:59:00,
2013-08-05 13:04:00,92.5,77.1,29.99,SW,229,4.0,4.0,61,0.00,,---,0.00,VWS V14.01,2013-08-05 17:04:00,
2013-08-05 13:09:00,92.2,77.3,29.99,West,267,1.0,5.0,62,0.00,,---,0.00,VWS V14.01,2013-08-05 17:09:00,
2013-08-05 13:14:00,92.1,77.7,29.98,NW,311,0.0,5.0,63,0.00,,---,0.00,VWS V14.01,2013-08-05 17:14:00,
2013-08-05 13:19:00,91.9,77.5,29.98,NNW,344,1.0,5.0,63,0.00,,---,0.00,VWS V14.01,2013-08-05 17:19:00,
2013-08-05 13:25:00,91.4,77.0,29.98,NNW,330,2.0,5.0,63,0.00,,---,0.00,VWS V14.01,2013-08-05 17:25:00,
2013-08-05 13:30:00,91.3,77.4,29.98,West,280,1.0,1.0,64,0.00,,---,0.00,VWS V14.01,2013-08-05 17:30:00,
2013-08-05 13:35:00,92.0,77.6,29.98,West,276,1.0,1.0,63,0.00,,---,0.00,VWS V14.01,2013-08-05 17:35:00,
2013-08-05 13:40:00,92.9,77.0,29.98,SSW,200,0.0,2.0,60,0.00,,---,0.00,VWS V14.01,2013-08-05 17:40:00,
2013-08-05 13:45:00,93.3,77.3,29.97,SW,214,1.0,2.0,60,0.00,,---,0.00,VWS V14.01,2013-08-05 17:45:00,
2013-08-05 13:50:00,93.4,76.4,29.97,NNW,333,2.0,4.0,58,0.00,,---,0.00,VWS V14.01,2013-08-05 17:50:00,
2013-08-05 13:56:00,92.4,76.5,29.97,NE,43,3.0,4.0,60,0.00,,---,0.00,VWS V14.01,2013-08-05 17:56:00,
2013-08-05 14:01:00,91.8,76.9,29.97,NNE,22,4.0,5.0,62,0.00,,---,0.00,VWS V14.01,2013-08-05 18:01:00,
2013-08-05 14:06:00,92.1,77.7,29.95,NE,34,1.0,5.0,63,0.00,,---,0.00,VWS V14.01,2013-08-05 18:06:00,
2013-08-05 14:11:00,93.0,76.6,29.95,NNE,33,1.0,5.0,59,0.00,,---,0.00,VWS V14.01,2013-08-05 18:11:00,
2013-08-05 14:16:00,93.4,77.4,29.95,NNE,23,0.0,5.0,60,0.00,,---,0.00,VWS V14.01,2013-08-05 18:16:00,
2013-08-05 14:21:00,93.8,76.3,29.95,WNW,287,1.0,5.0,57,0.00,,---,0.00,VWS V14.01,2013-08-05 18:21:00,
2013-08-05 14:26:00,93.8,75.7,29.95,ESE,113,0.0,5.0,56,0.00,,---,0.00,VWS V14.01,2013-08-05 18:26:00,
2013-08-05 14:31:00,92.8,78.4,29.95,ENE,71,4.0,6.0,63,0.00,,---,0.00,VWS V14.01,2013-08-05 18:31:00,
2013-08-05 14:36:00,91.7,79.2,29.95,East,79,1.0,6.0,67,0.00,,---,0.00,VWS V14.01,2013-08-05 18:36:00,
2013-08-05 14:42:00,90.9,78.9,29.95,ENE,72,1.0,6.0,68,0.00,,---,0.00,VWS V14.01,2013-08-05 18:42:00,
2013-08-05 14:47:00,90.7,79.6,29.95,SSE,155,1.0,6.0,70,0.00,,---,0.00,VWS V14.01,2013-08-05 18:47:00,
2013-08-05 14:52:00,90.6,79.0,29.94,ESE,107,1.0,6.0,69,0.00,,---,0.00,VWS V14.01,2013-08-05 18:52:00,
2013-08-05 14:57:00,89.9,78.8,29.94,SE,136,0.0,6.0,70,0.00,,---,0.00,VWS V14.01,2013-08-05 18:57:00,
2013-08-05 15:02:00,89.6,78.9,29.94,SE,129,0.0,2.0,71,0.00,,---,0.00,VWS V14.01,2013-08-05 19:02:00,
2013-08-05 15:07:00,89.0,78.8,29.94,ESE,117,1.0,2.0,72,0.00,,---,0.00,VWS V14.01,2013-08-05 19:07:00,
2013-08-05 15:12:00,88.5,78.7,29.94,SE,143,2.0,3.0,73,0.00,,---,0.00,VWS V14.01,2013-08-05 19:12:00,
2013-08-05 15:17:00,88.1,78.8,29.94,SE,139,0.0,3.0,74,0.00,,---,0.00,VWS V14.01,2013-08-05 19:17:00,
2013-08-05 15:22:00,87.8,78.5,29.94,SE,143,0.0,3.0,74,0.00,,---,0.00,VWS V14.01,2013-08-05 19:22:00,
2013-08-05 15:27:00,87.4,77.7,29.94,SE,128,1.0,3.0,73,0.00,,---,0.00,VWS V14.01,2013-08-05 19:27:00,
2013-08-05 15:33:00,87.1,78.2,29.93,ESE,114,1.0,2.0,75,0.00,,---,0.00,VWS V14.01,2013-08-05 19:33:00,
2013-08-05 15:38:00,86.9,78.4,29.93,East,100,0.0,4.0,76,0.00,,---,0.00,VWS V14.01,2013-08-05 19:38:00,
2013-08-05 15:43:00,86.8,78.3,29.93,ESE,108,0.0,4.0,76,0.00,,---,0.00,VWS V14.01,2013-08-05 19:43:00,
2013-08-05 15:48:00,86.6,78.1,29.93,SSE,155,0.0,4.0,76,0.00,,---,0.00,VWS V14.01,2013-08-05 19:48:00,
2013-08-05 15:53:00,86.1,76.8,29.93,ESE,115,0.0,4.0,74,0.00,,---,0.00,VWS V14.01,2013-08-05 19:53:00,
2013-08-05 15:59:00,85.8,76.6,29.94,ESE,109,1.0,4.0,74,0.00,,---,0.00,VWS V14.01,2013-08-05 19:59:00,
2013-08-05 16:04:00,85.5,76.7,29.94,ENE,57,3.0,4.0,75,0.00,,---,0.00,VWS V14.01,2013-08-05 20:04:00,
2013-08-05 16:09:00,85.2,76.8,29.94,NE,37,4.0,4.0,76,0.00,,---,0.00,VWS V14.01,2013-08-05 20:09:00,
2013-08-05 16:14:00,85.0,76.6,29.93,East,81,0.0,5.0,76,0.00,,---,0.00,VWS V14.01,2013-08-05 20:14:00,
2013-08-05 16:19:00,85.0,76.6,29.93,ESE,117,0.0,5.0,76,0.00,,---,0.00,VWS V14.01,2013-08-05 20:19:00,
2013-08-05 16:24:00,85.0,76.6,29.93,ESE,115,2.0,5.0,76,0.00,,---,0.00,VWS V14.01,2013-08-05 20:24:00,
2013-08-05 16:30:00,85.0,77.0,29.94,NW,309,2.0,5.0,77,0.00,,---,0.00,VWS V14.01,2013-08-05 20:30:00,
2013-08-05 16:35:00,83.6,74.0,29.95,North,358,2.0,10.0,73,0.00,,---,0.00,VWS V14.01,2013-08-05 20:35:00,
2013-08-05 16:40:00,81.9,73.2,29.96,West,276,1.0,10.0,75,0.00,,---,0.00,VWS V14.01,2013-08-05 20:40:00,
2013-08-05 16:45:00,80.3,73.9,29.97,SSE,156,2.0,11.0,81,0.00,,---,0.00,VWS V14.01,2013-08-05 20:45:00,
2013-08-05 16:50:00,78.0,73.5,29.97,WNW,286,3.0,12.0,86,0.12,,---,0.12,VWS V14.01,2013-08-05 20:50:00,
2013-08-05 16:55:00,76.6,73.4,29.97,SSE,165,0.0,12.0,90,0.42,,---,0.42,VWS V14.01,2013-08-05 20:55:00,
2013-08-05 17:00:00,76.0,73.5,29.95,South,183,2.0,2.0,92,0.63,,---,0.63,VWS V14.01,2013-08-05 21:00:00,
2013-08-05 17:05:00,75.5,73.3,29.95,NW,319,0.0,3.0,93,0.71,,---,0.71,VWS V14.01,2013-08-05 21:05:00,
2013-08-05 17:10:00,75.3,73.1,29.95,South,173,2.0,3.0,93,0.72,,---,0.72,VWS V14.01,2013-08-05 21:10:00,
2013-08-05 17:16:00,75.1,73.3,29.94,WNW,295,0.0,4.0,94,0.72,,---,0.72,VWS V14.01,2013-08-05 21:16:00,
2013-08-05 17:21:00,75.0,73.2,29.94,WNW,301,0.0,4.0,94,0.72,,---,0.72,VWS V14.01,2013-08-05 21:21:00,
2013-08-05 17:26:00,75.1,73.6,29.94,WNW,302,0.0,4.0,95,0.72,,---,0.72,VWS V14.01,2013-08-05 21:26:00,
2013-08-05 17:31:00,75.0,73.2,29.94,NNE,23,0.0,1.0,94,0.72,,---,0.72,VWS V14.01,2013-08-05 21:31:00,
2013-08-05 17:36:00,74.9,73.1,29.94,NNE,29,0.0,1.0,94,0.72,,---,0.72,VWS V14.01,2013-08-05 21:36:00,
2013-08-05 17:42:00,75.3,74.1,29.94,NW,326,0.0,1.0,96,0.72,,---,0.72,VWS V14.01,2013-08-05 21:42:00,
2013-08-05 17:47:00,75.7,74.2,29.94,NW,326,0.0,1.0,95,0.72,,---,0.72,VWS V14.01,2013-08-05 21:47:00,
2013-08-05 17:52:00,75.6,74.1,29.94,SW,232,0.0,1.0,95,0.72,,---,0.72,VWS V14.01,2013-08-05 21:52:00,
2013-08-05 17:57:00,75.9,74.4,29.94,WNW,283,0.0,1.0,95,0.72,,---,0.72,VWS V14.01,2013-08-05 21:57:00,
2013-08-05 18:02:00,75.9,74.4,29.94,SSW,194,0.0,1.0,95,0.10,,---,0.72,VWS V14.01,2013-08-05 22:02:00,
2013-08-05 18:07:00,75.7,74.2,29.95,SSE,159,0.0,2.0,95,0.10,,---,0.72,VWS V14.01,2013-08-05 22:07:00,
2013-08-05 18:12:00,75.7,74.2,29.94,SSE,159,0.0,2.0,95,0.10,,---,0.72,VWS V14.01,2013-08-05 22:12:00,
2013-08-05 18:17:00,75.7,74.2,29.94,SSE,159,0.0,2.0,95,0.10,,---,0.72,VWS V14.01,2013-08-05 22:17:00,
2013-08-05 18:22:00,76.0,74.8,29.94,South,175,0.0,2.0,96,0.10,,---,0.72,VWS V14.01,2013-08-05 22:22:00,
2013-08-05 18:28:00,76.2,74.7,29.94,SSW,200,0.0,2.0,95,0.10,,---,0.72,VWS V14.01,2013-08-05 22:28:00,
2013-08-05 18:33:00,76.2,74.7,29.94,West,273,0.0,0.0,95,0.00,,---,0.72,VWS V14.01,2013-08-05 22:33:00,
2013-08-05 18:39:00,76.5,75.0,29.95,West,270,0.0,1.0,95,0.00,,---,0.72,VWS V14.01,2013-08-05 22:39:00,
2013-08-05 18:44:00,76.6,75.1,29.95,WNW,295,0.0,1.0,95,0.00,,---,0.72,VWS V14.01,2013-08-05 22:44:00,
2013-08-05 18:50:00,76.6,75.1,29.95,SW,219,0.0,1.0,95,0.00,,---,0.72,VWS V14.01,2013-08-05 22:50:00,
2013-08-05 18:55:00,76.5,75.0,29.95,SW,219,0.0,1.0,95,0.00,,---,0.72,VWS V14.01,2013-08-05 22:55:00,
2013-08-05 19:00:00,76.4,74.9,29.96,SW,219,0.0,0.0,95,0.00,,---,0.72,VWS V14.01,2013-08-05 23:00:00,
2013-08-05 19:06:00,76.3,74.8,29.96,SSW,208,0.0,0.0,95,0.00,,---,0.72,VWS V14.01,2013-08-05 23:06:00,
2013-08-05 19:11:00,76.3,74.8,29.96,SSW,209,0.0,3.0,95,0.00,,---,0.72,VWS V14.01,2013-08-05 23:11:00,
2013-08-05 19:16:00,76.2,74.7,29.96,South,172,0.0,3.0,95,0.00,,---,0.72,VWS V14.01,2013-08-05 23:16:00,
2013-08-05 19:22:00,75.9,74.1,29.96,SW,232,1.0,3.0,94,0.00,,---,0.72,VWS V14.01,2013-08-05 23:22:00,
2013-08-05 19:27:00,75.8,74.3,29.96,SSW,207,0.0,3.0,95,0.00,,---,0.72,VWS V14.01,2013-08-05 23:27:00,
2013-08-05 19:32:00,75.7,73.8,29.97,SSE,158,1.0,3.0,94,0.00,,---,0.72,VWS V14.01,2013-08-05 23:32:00,
2013-08-05 19:37:00,75.7,74.2,29.97,SW,217,0.0,3.0,95,0.00,,---,0.72,VWS V14.01,2013-08-05 23:37:00,
2013-08-05 19:42:00,75.6,73.8,29.97,WSW,238,0.0,4.0,94,0.00,,---,0.72,VWS V14.01,2013-08-05 23:42:00,
2013-08-05 19:47:00,75.6,73.8,29.97,SW,219,0.0,4.0,94,0.00,,---,0.72,VWS V14.01,2013-08-05 23:47:00,
2013-08-05 19:52:00,75.5,74.0,29.97,South,190,1.0,4.0,95,0.00,,---,0.72,VWS V14.01,2013-08-05 23:52:00,
2013-08-05 19:57:00,75.5,74.0,29.97,West,259,3.0,4.0,95,0.00,,---,0.72,VWS V14.01,2013-08-05 23:57:00,
2013-08-05 20:02:00,75.5,74.0,29.97,South,173,0.0,1.0,95,0.00,,---,0.72,VWS V14.01,2013-08-06 00:02:00,
2013-08-05 20:08:00,75.6,74.1,29.97,South,186,0.0,5.0,95,0.00,,---,0.72,VWS V14.01,2013-08-06 00:08:00,
2013-08-05 20:13:00,75.7,74.5,29.98,SSW,208,2.0,5.0,96,0.00,,---,0.72,VWS V14.01,2013-08-06 00:13:00,
2013-08-05 20:18:00,75.7,74.5,29.98,SSE,153,1.0,8.0,96,0.00,,---,0.72,VWS V14.01,2013-08-06 00:18:00,
2013-08-05 20:23:00,75.7,74.2,29.99,SW,235,1.0,8.0,95,0.00,,---,0.72,VWS V14.01,2013-08-06 00:23:00,
2013-08-05 20:28:00,75.6,74.1,29.99,WSW,257,0.0,8.0,95,0.00,,---,0.72,VWS V14.01,2013-08-06 00:28:00,
2013-08-05 20:33:00,75.6,74.4,30.00,NW,311,0.0,2.0,96,0.00,,---,0.72,VWS V14.01,2013-08-06 00:33:00,
2013-08-05 20:38:00,75.7,74.5,30.00,SSW,192,4.0,5.0,96,0.00,,---,0.72,VWS V14.01,2013-08-06 00:38:00,
2013-08-05 20:43:00,75.5,74.0,30.00,West,265,0.0,5.0,95,0.00,,---,0.72,VWS V14.01,2013-08-06 00:43:00,
2013-08-05 20:48:00,75.5,74.3,30.00,West,262,2.0,5.0,96,0.00,,---,0.72,VWS V14.01,2013-08-06 00:48:00,
2013-08-05 20:54:00,75.4,73.9,30.00,SSE,163,1.0,5.0,95,0.00,,---,0.72,VWS V14.01,2013-08-06 00:54:00,
2013-08-05 20:59:00,75.4,74.2,30.00,WSW,246,1.0,5.0,96,0.00,,---,0.72,VWS V14.01,2013-08-06 00:59:00,
2013-08-05 21:04:00,75.3,74.1,29.99,WNW,293,2.0,3.0,96,0.00,,---,0.72,VWS V14.01,2013-08-06 01:04:00,
2013-08-05 21:10:00,75.3,74.1,29.99,WSW,246,0.0,4.0,96,0.00,,---,0.72,VWS V14.01,2013-08-06 01:10:00,
2013-08-05 21:15:00,75.2,74.0,29.99,WNW,293,1.0,5.0,96,0.00,,---,0.72,VWS V14.01,2013-08-06 01:15:00,
2013-08-05 21:20:00,75.3,73.8,29.98,NNE,33,0.0,5.0,95,0.00,,---,0.72,VWS V14.01,2013-08-06 01:20:00,
2013-08-05 21:25:00,75.2,73.7,29.97,SW,224,0.0,5.0,95,0.00,,---,0.72,VWS V14.01,2013-08-06 01:25:00,
2013-08-05 21:30:00,75.1,73.6,29.97,SW,215,0.0,1.0,95,0.00,,---,0.72,VWS V14.01,2013-08-06 01:30:00,
2013-08-05 21:36:00,75.2,74.0,29.96,West,263,0.0,2.0,96,0.00,,---,0.72,VWS V14.01,2013-08-06 01:36:00,
2013-08-05 21:41:00,75.3,74.1,29.97,WNW,300,2.0,3.0,96,0.00,,---,0.72,VWS V14.01,2013-08-06 01:41:00,
2013-08-05 21:46:00,75.2,73.7,29.98,West,273,0.0,3.0,95,0.00,,---,0.72,VWS V14.01,2013-08-06 01:46:00,
2013-08-05 21:51:00,75.2,73.7,29.98,West,274,0.0,3.0,95,0.00,,---,0.72,VWS V14.01,2013-08-06 01:51:00,
2013-08-05 21:57:00,75.2,73.7,29.98,SW,222,2.0,3.0,95,0.00,,---,0.72,VWS V14.01,2013-08-06 01:57:00,
2013-08-05 22:02:00,75.2,73.7,29.98,West,276,0.0,2.0,95,0.00,,---,0.72,VWS V14.01,2013-08-06 02:02:00,
2013-08-05 22:07:00,75.1,73.6,29.98,WSW,257,0.0,3.0,95,0.00,,---,0.72,VWS V14.01,2013-08-06 02:07:00,
2013-08-05 22:12:00,75.1,73.6,29.98,West,277,0.0,3.0,95,0.00,,---,0.72,VWS V14.01,2013-08-06 02:12:00,
2013-08-05 22:17:00,75.1,73.9,29.98,NW,311,0.0,3.0,96,0.00,,---,0.72,VWS V14.01,2013-08-06 02:17:00,
2013-08-05 22:22:00,75.1,73.6,29.98,NW,307,0.0,3.0,95,0.00,,---,0.72,VWS V14.01,2013-08-06 02:22:00,
2013-08-05 22:27:00,75.0,73.8,29.98,WNW,300,0.0,3.0,96,0.00,,---,0.72,VWS V14.01,2013-08-06 02:27:00,
2013-08-05 22:33:00,74.9,73.4,29.99,WNW,298,0.0,0.0,95,0.00,,---,0.72,VWS V14.01,2013-08-06 02:33:00,
2013-08-05 22:38:00,74.8,73.3,29.98,West,264,0.0,0.0,95,0.00,,---,0.72,VWS V14.01,2013-08-06 02:38:00,
2013-08-05 22:43:00,74.8,73.3,29.98,West,266,0.0,1.0,95,0.00,,---,0.72,VWS V14.01,2013-08-06 02:43:00,
2013-08-05 22:48:00,74.8,73.6,29.98,West,265,0.0,1.0,96,0.00,,---,0.72,VWS V14.01,2013-08-06 02:48:00,
2013-08-05 22:53:00,74.8,73.6,29.98,West,274,0.0,1.0,96,0.00,,---,0.72,VWS V14.01,2013-08-06 02:53:00,
2013-08-05 22:58:00,74.8,73.6,29.98,West,277,0.0,1.0,96,0.00,,---,0.72,VWS V14.01,2013-08-06 02:58:00,
2013-08-05 23:03:00,74.8,73.6,29.99,West,277,0.0,1.0,96,0.00,,---,0.72,VWS V14.01,2013-08-06 03:03:00,
2013-08-05 23:08:00,74.7,73.5,29.99,West,277,0.0,1.0,96,0.00,,---,0.72,VWS V14.01,2013-08-06 03:08:00,
2013-08-05 23:13:00,74.6,73.4,29.98,West,276,0.0,1.0,96,0.00,,---,0.72,VWS V14.01,2013-08-06 03:13:00,
2013-08-05 23:19:00,74.6,73.4,29.98,West,276,0.0,1.0,96,0.00,,---,0.72,VWS V14.01,2013-08-06 03:19:00,
2013-08-05 23:24:00,74.6,73.4,29.98,West,273,0.0,2.0,96,0.00,,---,0.72,VWS V14.01,2013-08-06 03:24:00,
2013-08-05 23:29:00,74.6,73.4,29.98,West,277,0.0,2.0,96,0.00,,---,0.72,VWS V14.01,2013-08-06 03:29:00,
2013-08-05 23:34:00,74.6,73.4,29.98,West,273,1.0,1.0,96,0.00,,---,0.72,VWS V14.01,2013-08-06 03:34:00,
2013-08-05 23:39:00,74.7,73.5,29.97,West,262,0.0,1.0,96,0.00,,---,0.72,VWS V14.01,2013-08-06 03:39:00,
2013-08-05 23:45:00,74.6,73.4,29.96,West,260,0.0,1.0,96,0.00,,---,0.72,VWS V14.01,2013-08-06 03:45:00,
2013-08-05 23:50:00,74.7,73.5,29.96,West,279,0.0,1.0,96,0.00,,---,0.72,VWS V14.01,2013-08-06 03:50:00,
2013-08-05 23:56:00,74.6,73.4,29.97,West,280,0.0,1.0,96,0.00,,---,0.72,VWS V14.01,2013-08-06 03:56:00,